Location: Peebles
(55.6412°N, 3.1714°W)
Time: 05:47:02
(UTC+01:00)

deb Agena D - Pass Details

Date: 11 July 2022
Orbit: 797 x 980 km, 99.8° (Epoch: 16 August)

Event Time Altitude Azimuth Distance (km) Brightness Sun altitude
Rises 00:01:39 0° 16° (NNE) 3,420 10.4 -10.5°
Reaches altitude 10° 00:04:06 10° 8° (N) 2,507 9.8 -10.6°
Maximum altitude 00:09:12 39° 302° (WNW) 1,315 7.7 -10.8°
Drops below altitude 10° 00:14:31 10° 236° (SW) 2,607 8.6 -11.0°
Sets 00:17:07 0° 229° (SW) 3,573 9.2 -11.1°
